Location: Waco, TX
(31.5480°N, 97.1670°W)
Time: 15:43:12
(UTC-05:00)

ISS - Pass Details

Date: 18 September 2019
Orbit: 411 x 421 km, 51.6° (Epoch: 17 September)

Event Time Altitude Azimuth Distance (km) Brightness Sun altitude
Rises 20:28:58 0° 223° (SW) 2,329 0.5 -13.2°
Reaches altitude 10° 20:31:03 10° 222° (SW) 1,470 -0.6 -13.6°
Maximum altitude 20:34:20 86° 135° (SE) 415 -3.9 -14.3°
Enters shadow 20:36:48 17° 46° (NE) 1,132 -1.9 -14.8°
Drops below altitude 10° 20:37:39 10° 46° (NE) 1,476 - -15.0°
Sets 20:39:44 0° 46° (NE) 2,340 - -15.4°
